Campo, CA

2:46 PM PST on December 05, 2019 (GMT -0800)
Campo

Weather History for KCZZ - November, 2019

Change the Weather History Date:

Saturday, November 16, 2019

  Actual Average Record
Temperature  
Mean Temperature 60 °F 53 °F  
Max Temperature 79 °F 70 °F 86 °F (1995)
Min Temperature 41 °F 36 °F 20 °F (2000)
Degree Days  
Heating Degree Days 5 12  
Month to date heating degree days 83 162  
Since 1 July heating degree days 305 372  
Cooling Degree Days 0 0  
Month to date cooling degree days 0 0  
Year to date cooling degree days 828 839  
Growing Degree Days 10 (Base 50)    
Moisture  
Dew Point 29 °F    
Average Humidity 39    
Maximum Humidity 62    
Minimum Humidity 16    
Precipitation  
Precipitation 0.00 in 0.04 in 0.80 in (1952)
Month to date precipitation 0.00 0.47  
Year to date precipitation 13.53 12.80  
Sea Level Pressure  
Sea Level Pressure 29.93 in    
Wind  
Wind Speed 8 mph (NE)    
Max Wind Speed 25 mph    
Max Gust Speed 33 mph    
T = Trace of Precipitation, MM = Missing Value Source: NWS Daily Summary

Daily Weather History Graph

Daily Weather History Graph

Search for Another Location

Airport or City:

Astronomy

Nov. 16, 2019 Rise Set
Actual Time 6:16 AM PST 4:44 PM PST
Civil Twilight 5:50 AM PST 5:10 PM PST
Nautical Twilight 5:20 AM PST 5:40 PM PST
Astronomical Twilight 4:51 AM PST 6:09 PM PST
Moon 8:27 PM PST (11/16) 10:08 AM PST (11/16)
Length of Visible Light 11h 20m
Length of Day
10h 27m
Waning Gibbous, 81% of the Moon is Illuminated
Nov 16
Waning Gibbous
Nov 19
Last Quarter
Nov 26
New
Dec 3
First Quarter
Dec 11
Full

Hourly Weather History & Observations

Time (PST) Temp. Windchill Dew Point Humidity Pressure Visibility Wind Dir Wind Speed Gust Speed Precip Events Conditions
12:52 AM 48.9 °F - 34.0 °F 56% 29.92 in - NE 4.6 mph - N/A   Unknown
1:52 AM 45.0 °F - 32.0 °F 60% 29.92 in - Calm Calm - N/A   Unknown
2:52 AM 42.1 °F 40.2 °F 30.0 °F 62% 29.92 in - NE 3.5 mph - N/A   Unknown
3:52 AM 42.1 °F - 30.0 °F 62% 29.91 in - Calm Calm - N/A   Unknown
4:52 AM 48.0 °F - 33.1 °F 56% 29.91 in - NE 4.6 mph - N/A   Unknown
5:52 AM 59.0 °F - 34.0 °F 39% 29.91 in - Calm Calm - N/A   Unknown
6:52 AM 50.0 °F - 33.1 °F 52% 29.95 in - Calm Calm - N/A   Unknown
7:52 AM 70.0 °F - 33.1 °F 26% 29.93 in - ENE 10.4 mph - N/A   Unknown
8:52 AM 73.0 °F - 32.0 °F 22% 29.94 in - NE 13.8 mph - N/A   Unknown
9:52 AM 75.9 °F - 30.9 °F 19% 29.93 in - ENE 21.9 mph 28.8 mph N/A   Unknown
10:52 AM 77.0 °F - 30.0 °F 18% 29.92 in - ENE 24.2 mph 28.8 mph N/A   Unknown
11:52 AM 78.1 °F - 28.0 °F 16% 29.90 in - ENE 18.4 mph 27.6 mph N/A   Unknown
12:52 PM 78.1 °F - 28.0 °F 16% 29.89 in - ENE 18.4 mph 24.2 mph N/A   Unknown
2:52 PM 77.0 °F - 28.0 °F 17% 29.90 in - ENE 12.7 mph - N/A   Unknown
3:52 PM 75.0 °F - 27.0 °F 17% 29.91 in - NE 13.8 mph - N/A   Unknown
4:52 PM 70.0 °F - 27.0 °F 20% 29.93 in - NE 5.8 mph - N/A   Unknown
5:52 PM 60.1 °F - 26.1 °F 27% 29.94 in - ENE 4.6 mph - N/A   Unknown
6:52 PM 57.0 °F - 26.1 °F 30% 29.98 in - ENE 8.1 mph - N/A   Unknown
7:52 PM 52.0 °F - 25.0 °F 35% 29.95 in - ENE 6.9 mph - N/A   Unknown
8:52 PM 52.0 °F - 24.1 °F 34% 29.96 in - North 3.5 mph - N/A   Unknown
9:52 PM 48.0 °F - 23.0 °F 37% 29.97 in - Calm Calm - N/A   Unknown
10:52 PM 45.0 °F - 21.9 °F 40% 29.96 in - Calm Calm - N/A   Unknown
11:52 PM 54.0 °F - 23.0 °F 30% 29.93 in - Calm Calm - N/A   Unknown